Location: Musselshell
(46.5176°N, 108.0911°W)
Time: 21:27:40
(UTC+00:00)

AO-91 - Pass Details

Date: 30 June 2022
Orbit: 450 x 797 km, 97.7° (Epoch: 13 August)

Event Time Altitude Azimuth Distance (km) Brightness Sun altitude
Rises 05:25:48 0° 23° (NNE) 2,543 ? -16.0°
Reaches altitude 10° 05:28:07 10° 36° (NE) 1,627 ? -16.2°
Maximum altitude 05:31:06 27° 96° (E) 918 ? -16.4°
Enters shadow 05:31:22 26° 105° (ESE) 924 ? -16.4°
